Find OPS 9317

NORAD ID: 2221 Int'l Des: 1966-053 Owner: AFSSD Country: US operational
MEOCIRCULAR

リアルタイム位置

3D地球を読み込み中...

OPS 9317について

説明を読み込み中...

次回通過

Passes for default location (London). Set your location on the main map for personalized predictions.

高度履歴

Loading altitude history...

軌道要素

1 2221U 66053H 26104.99346610 -.00000077 00000-0 00000+0 0 9992
2 2221 8.3149 47.5783 0080527 174.2755 185.8068 1.06869338 50354
Epoch: Apr 14, 2026 • Age: 39 hours

現在のステータス

高度 34007.4 km
速度 3.14 km/s
衛星直下点 -8.18°S, 114.12°W
タイプ other

Most Searched